Location: Les Gen�tes
(46.3104°N, 1.5969°E)
Time: 18:09:42
(UTC+00:00)

BREEZE-M DEB (TANK) - Pass Details

Date: 01 June 2020
Orbit: 342 x 14771 km, 49.5° (Epoch: 06 July)

Event Time Altitude Azimuth Distance (km) Brightness Sun altitude
Rises 21:42:20 0° 286° (WNW) 10,498 10.0 -15.5°
Reaches altitude 10° 21:52:46 10° 288° (WNW) 7,049 9.1 -16.4°
Maximum altitude 22:08:21 88° 18° (NNE) 1,131 4.3 -17.6°
Enters shadow 22:11:29 21° 109° (ESE) 1,627 4.8 -17.8°
